Weather History for Moorhead, MN

Change the Weather History Date:

Friday, August 30, 2013

  Actual Average (KFAR) Record (KFAR)
Temperature  
Mean Temperature 75 °F 66 °F  
Max Temperature 86 °F 78 °F 97 °F (1961)
Min Temperature 64 °F 54 °F 36 °F (1931)
Degree Days  
Heating Degree Days 0 2  
Month to date heating degree days 33  
Since 1 June heating degree days 122  
Since 1 July heating degree days 49  
Cooling Degree Days 10 3  
Month to date cooling degree days 164  
Year to date cooling degree days 504  
Since 1 June cooling degree days 473  
Growing Degree Days 25 (Base 50)    
Moisture  
Dew Point 67 °F    
Average Humidity 81    
Maximum Humidity 100    
Minimum Humidity 45    
Precipitation  
Precipitation 0.00 in 0.09 in 1.73 in (1952)
Month to date precipitation 2.47  
Year to date precipitation 15.97  
Snow  
Snow 0.00 in 0.00 in 0.00 in ()
Month to date snowfall 0.0  
Since 1 June snowfall 0.0  
Since 1 July snowfall 0.0  
Snow Depth -    
Sea Level Pressure  
Sea Level Pressure 29.94 in    
Wind  
Wind Speed 5 mph (NE)    
Max Wind Speed 8 mph    
Max Gust Speed -    
Visibility 9 miles    
Events Fog    
T = Trace of Precipitation, MM = Missing Value Source: NWS Daily Summary

Daily Weather History Graph

Daily Weather History Graph

Search for Another Location

Airport:

Trip Planner

Search our weather history database for the weather conditions in past years. The results will help you decide how hot, cold, wet, or windy it might be!

Date:

Astronomy

Aug. 30, 2013 Rise Set
Actual Time 6:44 AM CDT 8:09 PM CDT
Civil Twilight 6:12 AM CDT 8:40 PM CDT
Nautical Twilight 5:34 AM CDT 9:18 PM CDT
Astronomical Twilight 4:52 AM CDT 9:59 PM CDT
Moon 1:12 AM CDT (8/30) 4:36 PM CDT (8/30)
Length of Visible Light 14h 28m
Length of Day
13h 25m
Waning Crescent, 29% of the Moon is Illuminated
Aug 30
Waning Crescent
Sep 5
New
Sep 12
First Quarter
Sep 19
Full
Sep 26
Last Quarter

Hourly Weather History & Observations

Time (CDT) Temp. Heat Index Dew Point Humidity Pressure Visibility Wind Dir Wind Speed Gust Speed Precip Events Conditions
12:15 AM 69.8 °F - 69.8 °F 100% 29.92 in 10.0 mi North 5.8 mph - N/A   Clear
12:34 AM 69.8 °F - 69.8 °F 100% 29.93 in 10.0 mi North 5.8 mph - N/A   Clear
12:55 AM 69.8 °F - 69.8 °F 100% 29.93 in 10.0 mi North 6.9 mph - N/A   Clear
1:14 AM 69.8 °F - 69.8 °F 100% 29.94 in 10.0 mi North 5.8 mph - N/A   Clear
1:35 AM 69.8 °F - 69.8 °F 100% 29.94 in 10.0 mi North 5.8 mph - N/A   Clear
1:55 AM 68.0 °F - 68.0 °F 100% 29.95 in 10.0 mi North 6.9 mph - N/A   Clear
2:14 AM 68.0 °F - 68.0 °F 100% 29.95 in 10.0 mi North 5.8 mph - N/A   Clear
2:35 AM 68.0 °F - 68.0 °F 100% 29.94 in 10.0 mi North 4.6 mph - N/A   Clear
2:55 AM 66.2 °F - 66.2 °F 100% 29.95 in 7.0 mi NNW 4.6 mph - N/A   Clear
3:14 AM 64.4 °F - 64.4 °F 100% 29.95 in 7.0 mi North 4.6 mph - N/A   Clear
3:35 AM 66.2 °F - 66.2 °F 100% 29.96 in 7.0 mi North 5.8 mph - N/A   Clear
3:55 AM 66.2 °F - 66.2 °F 100% 29.95 in 7.0 mi North 4.6 mph - N/A   Clear
4:14 AM 66.2 °F - 66.2 °F 100% 29.96 in 7.0 mi North 4.6 mph - N/A   Clear
4:35 AM 66.2 °F - 66.2 °F 100% 29.96 in 7.0 mi North 4.6 mph - N/A   Clear
4:55 AM 64.4 °F - 64.4 °F 100% 29.96 in 5.0 mi North 4.6 mph - N/A   Clear
5:14 AM 64.4 °F - 64.4 °F 100% 29.96 in 5.0 mi NNE 4.6 mph - N/A   Clear
5:35 AM 66.2 °F - 66.2 °F 100% 29.96 in 7.0 mi NNE 4.6 mph - N/A   Scattered Clouds
5:54 AM 64.4 °F - 64.4 °F 100% 29.96 in 5.0 mi NE 3.5 mph - N/A   Mostly Cloudy
6:15 AM 64.4 °F - 64.4 °F 100% 29.96 in 0.8 mi NE 6.9 mph - N/A   Overcast
6:35 AM 64.4 °F - 64.4 °F 100% 29.97 in 0.5 mi NE 6.9 mph - N/A Fog Fog
6:54 AM 66.2 °F - 66.2 °F 100% 29.97 in 0.5 mi NE 6.9 mph - N/A   Light Drizzle
7:15 AM 66.2 °F - 66.2 °F 100% 29.98 in 0.2 mi ENE 3.5 mph - N/A   Light Drizzle
7:35 AM 66.2 °F - 66.2 °F 100% 29.99 in 4.0 mi NE 4.6 mph - N/A   Overcast
7:54 AM 66.2 °F - 66.2 °F 100% 30.00 in 5.0 mi NE 5.8 mph - N/A   Overcast
8:15 AM 66.2 °F - 66.2 °F 100% 30.00 in 7.0 mi NE 8.1 mph - N/A   Overcast
8:35 AM 66.2 °F - 66.2 °F 100% 30.01 in 10.0 mi NNE 8.1 mph - N/A   Overcast
8:54 AM 66.2 °F - 66.2 °F 100% 30.01 in 10.0 mi ENE 8.1 mph - N/A   Overcast
9:15 AM 68.0 °F - 68.0 °F 100% 30.01 in 10.0 mi NNE 8.1 mph - N/A   Overcast
9:35 AM 69.8 °F - 69.8 °F 100% 30.01 in 10.0 mi NNE 6.9 mph - N/A   Mostly Cloudy
9:54 AM 71.6 °F - 69.8 °F 94% 30.01 in 10.0 mi North 6.9 mph - N/A   Scattered Clouds
10:15 AM 71.6 °F - 69.8 °F 94% 30.00 in 10.0 mi NE 4.6 mph - N/A   Clear
10:34 AM 73.4 °F - 69.8 °F 88% 30.00 in 10.0 mi NNE 4.6 mph - N/A   Clear
10:55 AM 73.4 °F - 68.0 °F 83% 30.00 in 10.0 mi NE 4.6 mph - N/A   Clear
11:15 AM 75.2 °F - 68.0 °F 78% 30.00 in 10.0 mi NE 3.5 mph - N/A   Clear
11:34 AM 75.2 °F - 66.2 °F 73% 30.00 in 10.0 mi North 4.6 mph - N/A   Clear
11:55 AM 77.0 °F - 68.0 °F 74% 30.00 in 10.0 mi NW 4.6 mph - N/A   Clear
12:15 PM 78.8 °F - 66.2 °F 65% 29.99 in 10.0 mi NNE 4.6 mph - N/A   Clear
12:34 PM 78.8 °F - 66.2 °F 65% 29.99 in 10.0 mi NNE 4.6 mph - N/A   Clear
12:55 PM 78.8 °F - 66.2 °F 65% 29.98 in 10.0 mi NNE 3.5 mph - N/A   Clear
1:15 PM 80.6 °F 82.7 °F 66.2 °F 61% 29.98 in 10.0 mi North 3.5 mph - N/A   Clear
1:34 PM 80.6 °F 82.7 °F 66.2 °F 61% 29.98 in 10.0 mi NNW 4.6 mph - N/A   Clear
1:55 PM 82.4 °F 84.6 °F 66.2 °F 58% 29.97 in 10.0 mi Calm Calm - N/A   Clear
2:14 PM 84.2 °F 86.6 °F 66.2 °F 55% 29.97 in 10.0 mi ESE 3.5 mph - N/A   Clear
2:34 PM 82.4 °F 84.6 °F 66.2 °F 58% 29.96 in 10.0 mi Calm Calm - N/A   Clear
2:55 PM 84.2 °F 86.6 °F 66.2 °F 55% 29.96 in 10.0 mi South 4.6 mph - N/A   Clear
3:14 PM 84.2 °F 84.4 °F 60.8 °F 45% 29.94 in 10.0 mi SSE 5.8 mph - N/A   Clear
3:34 PM 84.2 °F 85.6 °F 64.4 °F 51% 29.94 in 10.0 mi SSE 4.6 mph - N/A   Clear
3:55 PM 86.0 °F 87.3 °F 64.4 °F 48% 29.93 in 10.0 mi SE 3.5 mph - N/A   Clear
4:14 PM 86.0 °F 87.3 °F 64.4 °F 48% 29.91 in 10.0 mi ESE 4.6 mph - N/A   Clear
4:35 PM 86.0 °F 87.3 °F 64.4 °F 48% 29.92 in 10.0 mi South 3.5 mph - N/A   Clear
4:54 PM 86.0 °F 87.3 °F 64.4 °F 48% 29.91 in 10.0 mi SSW 3.5 mph - N/A   Clear
5:15 PM 86.0 °F 86.6 °F 62.6 °F 45% 29.91 in 10.0 mi SSE 3.5 mph - N/A   Clear
5:35 PM 86.0 °F 86.6 °F 62.6 °F 45% 29.90 in 10.0 mi SSE 4.6 mph - N/A   Clear
5:54 PM 86.0 °F 87.3 °F 64.4 °F 48% 29.90 in 10.0 mi SSE 3.5 mph - N/A   Clear
6:15 PM 84.2 °F 85.6 °F 64.4 °F 51% 29.89 in 10.0 mi SE 4.6 mph - N/A   Clear
6:35 PM 84.2 °F 86.6 °F 66.2 °F 55% 29.89 in 10.0 mi Calm Calm - N/A   Clear
6:54 PM 84.2 °F 87.3 °F 68.0 °F 58% 29.88 in 10.0 mi Calm Calm - N/A   Clear
7:15 PM 84.2 °F 87.3 °F 68.0 °F 58% 29.87 in 10.0 mi Calm Calm - N/A   Clear
7:35 PM 82.4 °F 86.3 °F 69.8 °F 66% 29.87 in 10.0 mi Calm Calm - N/A   Clear
7:54 PM 80.6 °F 83.9 °F 69.8 °F 70% 29.87 in 10.0 mi Calm Calm - N/A   Clear
8:15 PM 80.6 °F 84.6 °F 71.6 °F 74% 29.87 in 10.0 mi Calm Calm - N/A   Clear
8:35 PM 78.8 °F - 71.6 °F 78% 29.87 in 10.0 mi Calm Calm - N/A   Clear
8:54 PM 78.8 °F - 68.0 °F 69% 29.87 in 10.0 mi Calm Calm - N/A   Clear
9:15 PM 75.2 °F - 69.8 °F 83% 29.87 in 10.0 mi SSE 3.5 mph - N/A   Clear
9:34 PM 75.2 °F - 69.8 °F 83% 29.87 in 10.0 mi Calm Calm - N/A   Clear
9:55 PM 73.4 °F - 69.8 °F 88% 29.86 in 10.0 mi SSE 4.6 mph - N/A   Clear
10:15 PM 73.4 °F - 68.0 °F 83% 29.86 in 10.0 mi South 3.5 mph - N/A   Clear
10:34 PM 73.4 °F - 68.0 °F 83% 29.86 in 10.0 mi South 3.5 mph - N/A   Clear
10:55 PM 71.6 °F - 68.0 °F 88% 29.86 in 10.0 mi SSE 3.5 mph - N/A   Clear
11:15 PM 71.6 °F - 68.0 °F 88% 29.86 in 10.0 mi SSE 5.8 mph - N/A   Clear
11:34 PM 71.6 °F - 68.0 °F 88% 29.86 in 10.0 mi SSE 6.9 mph - N/A   Clear
11:55 PM 71.6 °F - 68.0 °F 88% 29.87 in 10.0 mi South 6.9 mph - N/A   Clear